This is the latest recevied weather packets stored in our database for station/object KE0SWK-13. If no packets are shown the sender has not sent any weather packets the latest 10 day(s).
| Time | Temp. | Humidity | Pressure | Rain* | Wind** | Luminosity | Snow |
|---|---|---|---|---|---|---|---|
| 1788215523 | -17.78° C | 100% | 0 hPa | 0 mm | - | - | - |
| 1788211893 | -17.78° C | 100% | 0 hPa | 0 mm | - | - | - |
| 1788210986 | -17.78° C | 100% | 0 hPa | 0 mm | - | - | - |
| 1788206458 | 40° C | 29% | 0 hPa | 0 mm | - | - | - |
| 1788201020 | 39.44° C | 32% | 0 hPa | 0 mm | - | - | - |
| 1788197391 | -17.78° C | 100% | 0 hPa | 0 mm | - | - | - |
| 1788188103 | -17.78° C | 100% | 0 hPa | 0 mm | - | - | - |
| 1788187194 | -17.78° C | 100% | 0 hPa | 0 mm | - | - | - |
| 1788185378 | -17.78° C | 100% | 0 hPa | 0 mm | - | - | - |
| 1788184471 | -17.78° C | 100% | 0 hPa | 0 mm | - | - | - |
| 1788183571 | 28.89° C | 51% | 0 hPa | 0 mm | - | - | - |
| 1788180850 | 25.56° C | 58% | 0 hPa | 0 mm | - | - | - |
| 1788179944 | 23.89° C | 61% | 0 hPa | 0 mm | - | - | - |
| 1788178132 | 22.78° C | 65% | 0 hPa | 0 mm | - | - | - |
| 1788177226 | -17.78° C | 100% | 0 hPa | 0 mm | - | - | - |
| 1788175412 | -17.78° C | 100% | 0 hPa | 0 mm | - | - | - |
| 1788166347 | -17.78° C | 100% | 0 hPa | 0 mm | - | - | - |
| 1788165440 | 25° C | 60% | 0 hPa | 0 mm | - | - | - |
| 1788164534 | -17.78° C | 100% | 0 hPa | 0 mm | - | - | - |
| 1788162721 | -17.78° C | 100% | 0 hPa | 0 mm | - | - | - |
| 1788160906 | -17.78° C | 100% | 0 hPa | 0 mm | - | - | - |
| 1788160002 | 26.11° C | 57% | 0 hPa | 0 mm | - | - | - |
| 1788159095 | -17.78° C | 100% | 0 hPa | 0 mm | - | - | - |
| 1788157281 | -17.78° C | 100% | 0 hPa | 0 mm | - | - | - |
| 1788156374 | -17.78° C | 100% | 0 hPa | 0 mm | - | - | - |
* Rain latest hour (hover to see other rain measurements)
** Current wind speed in m/s (hover to see current wind gust speed)